sat.trackr.live / text

‹ back to catalog

STARLINK-34269

NORAD 64386 · 2025-127S

PAYLOAD ACTIVE UNKNOWN

§ Identity

Operator
Country
US
Launch date
2025-06-13
Launch site
AFETR
Launch vehicle
Mass (kg)
RCS (m²)

Purposes: comms

External: N2YO · Heavens-Above · Gunter

§ Orbital elements

Epoch: 2026-09-19T10:44:37.851648Z

Period
94.27 min
Inclination
43.0008°
Eccentricity
0.0000909
Mean motion
15.27593923 rev/d
Perigee alt
482.4 km
Apogee alt
483.6 km
Semi-major
6,861.1 km
B*
3.5423e-4
RAAN
165.2091°
Arg perigee
270.1183°
Mean anomaly
89.9565°
Rev number
7,210

§ Raw data

STARLINK-342691 64386U 25127S   26262.44766032  .00009502  00000+0  35423-3 0  99992 64386  43.0008 165.2091 0000909 270.1183  89.9565 15.27593923 72106

JSON: /api/v1/satellites/64386 · /tle

For live sub-satellite position, see the globe view (requires WebGL).

§ Visibility from observer

Set your observer location to see the next 7 days of passes ≥ 10°. The values pass through the URL so the page stays shareable.

No JS? Fill the form by hand. The geolocation button needs JavaScript.